This is the latest recevied weather packets stored in our database for station/object VK5FR. If no packets are shown the sender has not sent any weather packets the latest 10 day(s).
| Time | Temp. | Humidity | Pressure | Rain* | Wind** | Luminosity | Snow |
|---|---|---|---|---|---|---|---|
| 1777696409 | 15.56° C | 92% | 1007.2 hPa | 3.05 mm | - | - | - |
| 1777696103 | 15.56° C | 91% | 1007.4 hPa | 7.11 mm | - | - | - |
| 1777695800 | 15.56° C | 91% | 1007.1 hPa | 6.1 mm | - | - | - |
| 1777695498 | 15° C | 91% | 1007.3 hPa | 3.05 mm | - | - | - |
| 1777695195 | 15.56° C | 91% | 1007.4 hPa | 6.6 mm | - | - | - |
| 1777694892 | 15.56° C | 91% | 1007.2 hPa | 4.83 mm | - | - | - |
| 1777694589 | 16.11° C | 91% | 1007.4 hPa | 4.83 mm | - | - | - |
| 1777694285 | 15.56° C | 91% | 1007.2 hPa | 6.1 mm | - | - | - |
| 1777693982 | 16.11° C | 90% | 1007 hPa | 7.11 mm | - | - | - |
| 1777693679 | 16.11° C | 90% | 1007.6 hPa | 7.11 mm | - | - | - |
| 1777693377 | 16.11° C | 90% | 1007.5 hPa | 4.83 mm | - | - | - |
| 1777693075 | 16.11° C | 89% | 1007.2 hPa | 3.56 mm | - | - | - |
| 1777692772 | 16.67° C | 89% | 1007.2 hPa | 1.78 mm | - | - | - |
| 1777692469 | 16.11° C | 89% | 1007.1 hPa | 0 mm | - | - | - |
| 1777692165 | 16.11° C | 88% | 1006.9 hPa | 0 mm | - | - | - |
| 1777691863 | 16.67° C | 88% | 1007.1 hPa | 1.27 mm | - | - | - |
| 1777691561 | 16.67° C | 87% | 1007.4 hPa | 1.27 mm | - | - | - |
| 1777691260 | 17.22° C | 85% | 1007.5 hPa | 0 mm | - | - | - |
| 1777690957 | 17.78° C | 82% | 1007.7 hPa | 0 mm | - | - | - |
| 1777690654 | 17.78° C | 80% | 1007 hPa | 0 mm | - | - | - |
| 1777690352 | 18.33° C | 78% | 1006.9 hPa | 0 mm | - | - | - |
| 1777690049 | 17.78° C | 77% | 1006.8 hPa | 0 mm | - | - | - |
| 1777689747 | 18.33° C | 79% | 1006.7 hPa | 0 mm | - | - | - |
| 1777689445 | 18.33° C | 78% | 1006.9 hPa | 0 mm | - | - | - |
| 1777689142 | 18.33° C | 79% | 1007 hPa | 0 mm | - | - | - |
* Rain latest hour (hover to see other rain measurements)
** Current wind speed in m/s (hover to see current wind gust speed)